Probability
0 0 0 0 0 0 0 0 0 0 0 0 0 0 0 0 0 0 0 0 0 0 0 0 0 0 0 0 0 0 0 0 0 0 0 0 0 0 0 0 0 0 0 0
0 0 0 0 0 0 0 0 0 0 0 0 0 0 0 0 0 0 0 0 0 0 0 0 0 0 0 0 0 0 0 0 0 0 0 0 0 0 0 0 0 0 0 0
0 0 0 0 0 0 0 0 0 0 0 0 0 0 0 0 0 0 0 0 0 0 0 0 0 0 0 0 0 0 0 0 0 0 0 0 0 0 0 0 0 0 0 0
0 0 0 0 0 0 0 0 0 0 0 0 0 0 0 0 0 0 0 0 0 0 0 0 0 0 0 0 0 0 0 0 0 0 0 0 0 0 0 0 0 0 0 0
0 0 0 0 0 0 0 0 0 0 0 0 0 0 0 0 0 0 0 0 0 0 0 0 0 0 0 0 0 0 0 0 0 0 0 0 0 0 0 0 0 0 0 0
0 0 0 0 0 0 0 0 0 0 0 0 0 0 0 0 0 0 0 0 0 0 0 0 0 0 0 0 0 0 0 0 0 0 0 0 0 0 0 0 0 0 0 0
0 0 0 0 0 0 0 0 0 0 0 0 0 0 0 0 0 0 0 0 0 0 0 0 0 0 0 0 0 0 0 0 0 0 0 0 0 0 0 0 0 0 0 0
0 0 0 0 0 0 0 0 0 0 0 0 0 0 0 0 0 0 0 0 0 0 0 0 0 0 0 0 0 0 0 0 0 0 0 0 0 0 0 0 0 0 0 0
0 0 0 0 0 0 0 0 0 0 0 0 0 0 0 0 0 0 0 0 0 0 0 0 0 0 0 0 0 0 0 0 0 0 0 0 0 0 0 0 0 0 0 0
0 0 0 0 0 0 0 0 0 0 0 0 0 0 0 0 0 0 0 0 0 0 0 0 0 0 0 0 0 0 0 0 0 0 0 0 0 0 0 0 0 0 0 0
0 0 0 0 0 0 0 0 0 0 0 0 0 0 0 0 0 0 0 0 0 0 0 0 0 0 0 0 0 0 0 0 0 0 0 0 0 0 0 0 0 0 0 0
0 0 0 0 0 0 0 0 0 0 0 0 0 0 0 0 0 0 0 0 0 0 0 0 0 0 0 0 0 0 0 0 0 0 0 0 0 0 0 0 0 0 0 0
0 0 0 0 0 0 0 0 0 0 0 0 0 0 0 0 0 0 0 0 0 0 0 0 0 0 0 0 0 0 0 0 0 0 0 0 0 0 0 0 0 0 0 0
0 0 0 0 0 0 0 0 0 0 0 0 0 0 0 0 0 0 0 0 0 0 0 0 0 0 0 0 0 0 0 0 0 0 0 0 0 0 0 0 0 0 0 0
0 0 0 0 0 0 0 0 0 0 0 0 0 0 0 0 0 0 0 0 0 0 0 0 0 0 0 0 0 0 0 0 0 0 0 0 0 0 0 0 0 0 0 0
0 0 0 0 0 0 0 0 0 0 0 0 0 0 0 0 0 0 0 0 0 0 0 0 0 0 0 0 0 0 0 0 0 0 0 0 0 0 0 0 0 0 0 0
0 0 0 0 0 0 0 0 0 0 0 0 0 0 0 0 0 0 0 0 0 0 0 0 0 0 0 0 0 0 0 0 0 0 0 0 0 0 0 0 0 0 0 0
0 0 0 0 0 0 0 0 0 0 0 0 0 0 0 0 0 0 0 0 0 0 0 0 0 0 0 0 0 0 0 0 0 0 0 0 0 0 0 0 0 0 0 0
0 0 0 0 0 0 0 0 0 0 0 0 0 0 0 0 0 0 0 0 0 0 0 0 0 0 0 0 0 0 0 0 0 0 0 0 0 0 0 0 0 0 0 0
0 0 0 0 0 0 0 0 0 0 0 0 0 0 0 0 0 0 0 0 0 0 0 0 0 0 0 0 0 0 0 0 0 0 0 0 0 0 0 0 0 0 0 0
0 0 0 0 0 0 0 0 0 0 0 0 0 0 0 0 0 0 0 0 0 0 0 0 0 0 0 0 0 0 0 0 0 0 0 0 0 0 0 0 0 0 0 0
0 0 0 0 0 0 0 0 0 0 0 0 0 0 0 0 0 0 0 0 0 0 0 0 0 0 0 0 0 0 0 0 0 0 0 0 0 0 0 0 0 0 0 0
0 0 0 0 0 0 0 0 0 0 0 0 0 0 0 0 0 0 0 0 0 0 0 0 0 0 0 0 0 0 0 0 0 0 0 0 0 0 0 0 0 0 0 0
0 0 0 0 0 0 0 0 0 0 0 0 0 0 0 0 0 0 0 0 0 0 0 0 0 0 0 0 0 0 0 0 0 0 0 0 0 0 0 0 0 0 0 0
0 0 0 0 0 0 0 0 0 0 0 0 0 0 0 0 0 0 0 0 0 0 0 0 0 0 0 0 0 0 0 0 0 0 0 0 0 0 0 0 0 0 0 0
0 0 0 0 0 0 0 0 0 0 0 0 0 0 0 0 0 0 0 0 0 0 0 0 0 0 0 0 0 0 0 0 0 0 0 0 0 0 0 0 0 0 0 0
Height
5697 5700 5702 5706 5709 5713 5717 5721 5724 5728 5731 5735 5739 5742 5746 5749 5753 5756 5760 5763 5766 5768 5771 5774 5776 5778 5780 5782 5784 5785 5787 5788 5789 5790 5791 5791 5791 5790 5789 5789 5788 5788 5787 5787
5700 5702 5704 5707 5710 5713 5717 5720 5724 5727 5730 5734 5737 5740 5743 5746 5749 5753 5756 5758 5761 5763 5766 5768 5770 5772 5774 5776 5777 5779 5780 5781 5782 5783 5783 5784 5783 5783 5782 5781 5781 5780 5780 5779
5703 5705 5707 5709 5711 5714 5717 5720 5724 5727 5730 5732 5736 5738 5741 5743 5746 5749 5751 5754 5756 5758 5760 5762 5764 5766 5768 5769 5771 5772 5774 5775 5775 5776 5776 5776 5775 5775 5774 5774 5773 5773 5772 5771
5705 5707 5709 5711 5713 5715 5718 5720 5723 5726 5729 5731 5734 5736 5739 5740 5743 5745 5747 5749 5751 5753 5755 5756 5758 5759 5761 5763 5764 5765 5766 5767 5768 5769 5769 5768 5768 5767 5767 5766 5766 5765 5764 5763
5708 5709 5710 5712 5714 5716 5718 5720 5723 5725 5727 5729 5732 5734 5737 5737 5740 5742 5743 5745 5746 5748 5749 5750 5752 5753 5755 5756 5757 5758 5759 5760 5760 5761 5761 5760 5760 5759 5759 5758 5757 5756 5755 5754
5711 5711 5712 5713 5715 5717 5718 5720 5722 5724 5725 5728 5729 5731 5734 5735 5736 5738 5739 5740 5742 5743 5744 5745 5746 5747 5748 5749 5750 5751 5751 5752 5752 5753 5753 5752 5751 5751 5750 5749 5748 5747 5746 5745
5712 5713 5714 5714 5715 5717 5718 5720 5722 5722 5724 5726 5727 5728 5731 5731 5732 5733 5735 5736 5737 5738 5739 5739 5740 5741 5741 5742 5743 5744 5744 5744 5745 5744 5744 5743 5743 5742 5741 5740 5739 5738 5737 5736
5714 5714 5715 5715 5716 5717 5718 5720 5722 5722 5723 5724 5724 5725 5727 5728 5728 5729 5730 5731 5732 5733 5733 5734 5734 5734 5735 5735 5736 5736 5736 5736 5736 5736 5735 5735 5734 5733 5732 5731 5730 5729 5728 5726
5715 5715 5715 5715 5716 5716 5717 5718 5720 5721 5720 5721 5721 5722 5724 5724 5724 5725 5726 5726 5727 5727 5727 5727 5728 5728 5728 5728 5728 5729 5729 5728 5728 5727 5726 5726 5725 5724 5723 5721 5720 5719 5717 5716
5715 5716 5715 5715 5716 5716 5716 5717 5718 5718 5718 5718 5719 5719 5720 5720 5720 5721 5721 5721 5721 5722 5722 5722 5721 5721 5721 5721 5721 5721 5721 5720 5719 5718 5717 5716 5715 5714 5713 5712 5710 5709 5707 5705
5715 5715 5715 5715 5715 5715 5715 5716 5715 5715 5715 5716 5716 5719 5717 5716 5716 5716 5716 5716 5716 5716 5716 5716 5715 5715 5715 5714 5714 5713 5712 5711 5710 5709 5708 5707 5706 5705 5703 5702 5700 5698 5697 5694
5715 5715 5714 5714 5714 5713 5713 5713 5713 5714 5713 5713 5713 5716 5713 5712 5711 5711 5711 5711 5711 5710 5710 5710 5709 5709 5708 5707 5706 5705 5704 5703 5701 5700 5698 5697 5696 5695 5693 5692 5690 5688 5686 5684
5714 5713 5713 5712 5714 5712 5711 5710 5710 5710 5710 5709 5709 5712 5709 5708 5707 5707 5706 5706 5706 5705 5704 5704 5703 5702 5701 5699 5698 5697 5695 5694 5692 5691 5689 5688 5686 5685 5683 5681 5680 5678 5676 5674
5712 5711 5711 5711 5709 5708 5708 5707 5706 5706 5706 5706 5706 5706 5705 5704 5703 5702 5702 5701 5700 5699 5698 5697 5696 5695 5693 5692 5690 5689 5687 5685 5684 5682 5680 5678 5676 5675 5673 5671 5669 5667 5665 5663
5709 5709 5708 5707 5706 5705 5705 5704 5703 5702 5702 5702 5702 5701 5700 5699 5698 5697 5696 5695 5694 5693 5692 5690 5689 5687 5686 5684 5682 5680 5678 5676 5674 5673 5670 5668 5666 5664 5662 5660 5658 5656 5654 5651
5706 5706 5705 5704 5703 5701 5701 5700 5699 5698 5697 5697 5696 5696 5695 5694 5693 5692 5691 5689 5688 5686 5685 5683 5681 5680 5678 5676 5674 5672 5669 5667 5665 5663 5660 5658 5656 5654 5651 5649 5647 5645 5642 5640
5702 5701 5701 5700 5699 5697 5698 5697 5695 5694 5693 5692 5691 5692 5689 5689 5687 5686 5685 5683 5681 5679 5677 5676 5674 5671 5669 5667 5665 5663 5660 5658 5655 5653 5650 5648 5645 5643 5640 5638 5636 5633 5630 5628
5697 5696 5695 5695 5695 5693 5695 5692 5690 5689 5688 5687 5686 5685 5684 5683 5681 5680 5678 5676 5674 5672 5670 5667 5665 5663 5661 5658 5656 5653 5651 5648 5645 5642 5640 5637 5634 5632 5629 5627 5624 5621 5619 5616
5692 5691 5690 5690 5688 5688 5688 5686 5684 5683 5683 5681 5680 5679 5677 5676 5674 5673 5671 5669 5666 5664 5662 5659 5657 5654 5651 5649 5646 5643 5640 5637 5634 5632 5629 5625 5623 5620 5617 5615 5612 5610 5607 5604
5686 5685 5685 5683 5682 5682 5683 5680 5678 5678 5677 5675 5673 5672 5670 5669 5667 5666 5663 5660 5658 5656 5653 5650 5647 5644 5642 5639 5636 5633 5630 5627 5623 5620 5617 5614 5611 5608 5605 5603 5600 5597 5595 5592
5679 5678 5677 5676 5674 5674 5675 5672 5671 5671 5670 5667 5665 5664 5662 5661 5659 5657 5654 5652 5649 5646 5644 5641 5637 5634 5631 5628 5625 5622 5618 5615 5612 5608 5605 5601 5598 5596 5593 5590 5588 5585 5582 5580
5672 5671 5670 5668 5667 5669 5666 5664 5663 5663 5660 5659 5657 5655 5654 5652 5650 5648 5645 5642 5640 5637 5634 5630 5627 5624 5620 5616 5613 5610 5606 5603 5599 5596 5593 5589 5586 5583 5580 5578 5575 5572 5569 5567
5664 5663 5661 5661 5662 5659 5657 5655 5654 5653 5651 5650 5648 5646 5644 5642 5640 5638 5635 5632 5629 5626 5623 5620 5616 5613 5609 5605 5602 5598 5595 5591 5587 5584 5581 5577 5574 5571 5568 5565 5562 5559 5556 5553
5655 5654 5652 5652 5651 5649 5647 5646 5645 5643 5642 5640 5639 5637 5635 5632 5630 5628 5625 5622 5619 5616 5612 5609 5605 5602 5598 5594 5590 5586 5582 5579 5575 5572 5568 5565 5562 5558 5555 5552 5549 5546 5543 5539
5646 5644 5642 5641 5641 5639 5638 5637 5635 5634 5632 5630 5629 5627 5624 5622 5619 5617 5614 5611 5608 5604 5601 5597 5594 5590 5586 5582 5578 5574 5570 5566 5563 5559 5556 5552 5549 5545 5542 5538 5535 5532 5529 5525
5636 5633 5631 5631 5630 5628 5628 5626 5625 5623 5622 5620 5618 5616 5613 5611 5608 5605 5602 5599 5596 5593 5589 5585 5582 5578 5574 5570 5566 5562 5558 5554 5550 5547 5543 5539 5535 5532 5528 5525 5522 5518 5514 5511
Wind_Speed
9 10 13 15 18 19 19 20 20 21 21 22 21 23 23 25 26 25 26 27 27 27 28 29 30 31 31 30 30 30 30 30 30 30 31 31 32 32 33 33 33 33 33 33
9 10 12 14 16 16 17 18 18 19 19 20 20 21 22 23 24 25 25 26 26 27 27 28 29 30 30 30 30 30 30 30 31 31 31 31 32 32 33 34 34 33 33 33
8 9 10 11 13 14 16 16 16 17 18 19 19 19 21 21 22 23 24 24 25 25 25 27 28 29 30 30 30 30 31 31 32 32 32 32 32 32 33 32 33 34 34 34
8 8 8 9 11 12 13 14 14 15 16 17 17 18 19 20 20 21 22 23 24 26 26 26 28 29 29 29 30 31 31 32 32 32 33 33 34 34 34 34 35 35 36 36
7 7 8 8 9 10 11 11 12 13 14 15 16 17 18 19 20 20 21 22 23 25 26 26 28 30 30 30 30 32 32 32 33 33 33 34 35 35 36 36 36 36 37 37
6 6 6 7 7 8 9 10 11 12 13 14 15 16 17 18 18 19 20 22 23 23 25 27 28 30 31 31 31 31 32 33 34 34 34 35 35 36 36 37 37 36 36 37
4 4 5 5 6 7 8 8 10 11 12 13 14 15 16 16 18 19 20 21 22 23 24 26 27 28 30 31 31 31 32 33 34 35 35 35 35 36 36 37 37 37 37 38
3 3 3 3 4 6 6 7 9 10 11 12 14 15 15 16 17 18 20 21 22 23 24 26 27 28 29 30 30 31 31 32 33 34 35 35 35 36 37 37 38 38 39 39
1 1 1 2 3 5 6 7 8 10 11 12 14 15 16 16 17 18 20 21 22 23 24 25 26 27 28 29 29 30 31 32 33 34 35 36 36 36 36 37 38 39 39 40
1 0 1 2 3 5 6 7 9 10 11 12 13 13 14 15 16 18 19 19 21 22 22 23 24 25 26 28 30 31 32 33 34 34 35 36 36 36 37 37 38 39 40 41
2 2 2 3 4 5 6 7 8 10 11 12 12 12 13 14 15 16 17 18 19 20 21 23 24 25 26 28 29 31 32 34 35 35 35 36 37 37 38 38 39 39 40 40
3 4 5 5 6 6 7 8 9 10 11 12 13 13 13 14 15 16 17 18 19 19 20 22 23 25 26 27 29 31 32 34 34 35 35 37 38 38 38 38 38 38 39 39
5 6 7 7 8 8 8 9 10 11 12 12 13 13 14 14 15 16 17 18 19 20 21 22 23 25 26 27 29 30 32 33 34 35 36 37 37 38 38 38 38 38 39 39
7 8 8 9 9 10 10 10 11 12 12 12 13 14 14 15 16 17 17 18 20 21 22 24 25 26 27 28 29 31 32 34 34 35 36 36 37 38 38 39 39 39 40 41
10 10 10 10 10 11 11 11 12 12 13 13 13 14 15 16 17 18 19 20 21 23 24 25 26 27 28 29 30 32 33 34 35 35 36 36 37 37 39 40 40 41 41 42
12 13 12 12 12 12 12 12 13 13 13 14 14 14 16 17 18 19 20 21 23 24 25 26 27 29 30 31 32 33 34 34 35 35 36 36 37 38 39 40 41 41 42 42
15 15 15 14 15 14 13 13 14 14 14 15 15 16 17 18 19 20 21 22 23 25 26 27 29 30 31 32 32 33 34 35 36 37 37 38 38 39 40 40 41 41 42 42
17 17 17 16 16 16 15 15 16 16 16 17 17 19 19 20 21 22 23 24 25 27 28 29 30 32 33 33 34 35 36 37 37 38 39 39 40 40 41 41 41 42 42 42
19 19 19 19 19 18 18 18 19 19 20 20 21 21 22 23 24 25 26 27 28 29 30 31 32 32 34 35 36 37 37 38 39 40 40 41 41 41 42 41 41 41 41 41
20 21 21 21 22 21 20 21 22 23 23 23 24 24 25 26 26 27 28 29 31 31 32 33 34 34 35 36 37 38 39 40 41 41 42 42 42 42 42 41 41 41 41 42
22 23 23 24 25 24 24 24 24 24 24 25 25 26 27 27 28 29 30 31 32 33 35 35 36 36 37 38 39 40 41 41 42 42 42 42 42 42 42 42 42 42 42 43
25 26 26 26 27 26 26 26 26 26 27 27 27 28 28 29 30 31 31 32 34 35 36 36 37 38 39 39 41 41 41 42 41 41 41 41 41 42 42 42 42 43 44 44
27 28 28 28 27 28 28 28 27 28 29 29 29 30 30 31 31 32 33 34 35 36 37 38 38 39 40 40 41 42 42 42 42 42 42 42 42 42 42 42 43 43 44 45
29 29 30 29 29 30 30 30 30 30 30 31 31 31 31 32 33 34 35 36 37 37 38 38 39 39 40 41 42 42 42 43 42 42 42 42 42 42 43 43 44 45 45 46
31 31 31 31 31 32 32 32 32 33 33 33 33 33 34 35 36 37 37 37 38 38 39 39 40 40 41 41 42 42 42 42 42 42 42 43 43 44 44 45 46 47 47 48
32 33 34 34 34 35 34 34 35 35 35 36 36 37 37 38 38 38 38 39 40 40 40 40 41 41 41 41 42 42 43 43 43 43 43 43 44 45 46 47 47 48 48 47
Wind_Direction
161 164 171 179 183 188 195 199 202 206 210 213 216 218 221 224 227 229 229 231 233 236 239 241 243 245 249 251 251 252 253 255 257 260 263 265 267 269 271 271 273 274 274 275
153 163 168 176 181 186 191 196 203 208 212 215 218 221 223 224 225 228 230 233 236 239 241 242 244 247 249 251 252 251 253 256 259 261 263 266 268 269 270 271 271 273 274 275
148 160 168 177 184 188 189 194 202 209 215 219 222 224 225 226 228 229 231 235 238 240 242 243 243 246 249 251 251 252 255 257 259 261 263 265 268 270 271 270 272 273 274 274
127 145 162 174 182 185 190 195 201 209 215 220 223 226 226 229 231 231 234 237 240 241 243 245 245 246 249 251 252 253 256 258 259 261 264 266 268 270 271 271 272 274 275 276
119 136 154 169 178 184 189 196 203 210 216 219 224 229 229 232 234 236 238 240 243 243 245 247 248 249 250 252 254 254 256 258 259 261 265 267 269 270 271 272 273 273 275 277
114 135 155 171 180 187 194 202 210 216 220 223 227 233 234 234 236 239 241 241 244 246 247 250 251 251 251 253 255 257 258 260 261 263 267 269 270 270 271 272 273 275 276 278
113 130 150 171 185 197 203 208 214 222 226 229 232 235 238 237 238 241 244 245 248 249 251 252 253 254 254 256 258 260 261 262 264 265 267 270 271 271 272 272 273 275 277 279
112 135 150 170 192 207 213 217 224 231 235 236 238 239 241 242 243 245 248 250 252 253 254 254 255 256 257 258 259 262 264 266 267 269 270 271 272 272 272 273 274 276 278 279
101 138 166 191 206 217 224 227 233 241 245 247 249 250 248 249 249 249 252 254 256 256 257 256 257 258 259 260 261 263 265 268 269 270 272 272 273 273 274 274 275 276 277 278
7 263 244 233 231 231 236 239 240 245 250 256 257 257 257 255 254 253 253 255 256 256 257 258 259 262 263 264 264 265 267 270 272 271 273 274 274 275 276 277 277 277 278 280
312 288 276 266 257 253 252 252 252 254 256 260 261 263 263 262 259 257 256 257 257 258 259 261 262 265 267 267 268 269 270 273 274 274 274 275 275 276 276 277 278 279 280 281
290 282 277 274 269 265 261 260 258 258 259 262 265 267 268 267 265 264 262 263 263 263 265 267 268 271 273 274 273 273 274 275 275 276 277 277 277 277 278 278 279 280 280 281
286 282 279 274 272 269 266 266 265 265 265 267 270 272 271 272 271 269 268 267 269 270 271 273 275 276 278 278 278 277 276 277 277 278 279 279 278 278 278 278 279 279 280 281
285 283 282 280 277 274 271 271 272 273 274 274 274 274 275 275 275 274 273 273 273 274 276 277 278 279 279 280 280 280 280 280 279 280 280 280 279 279 278 278 279 280 281 282
282 281 279 278 277 275 273 275 275 276 277 278 278 277 278 278 279 280 281 280 279 280 281 282 281 281 282 282 283 283 282 283 282 281 281 281 280 280 280 280 281 281 282 282
282 281 278 277 279 278 277 277 276 276 276 277 277 277 277 280 282 284 285 285 284 284 285 285 285 285 285 285 285 285 285 285 284 284 283 282 282 281 281 281 282 282 282 282
280 280 279 278 279 281 279 279 279 279 277 276 276 277 279 281 283 285 287 288 287 287 287 287 287 287 287 287 287 286 286 286 285 285 285 284 283 282 282 283 283 283 282 282
279 278 279 279 278 278 281 280 280 280 279 279 278 278 280 282 283 285 287 288 288 288 288 289 289 288 288 287 287 287 286 286 286 285 285 284 283 283 283 283 283 283 283 283
278 278 278 278 278 279 280 280 279 279 279 280 279 279 280 282 283 285 286 288 289 290 291 291 291 290 289 288 288 288 287 286 286 286 285 285 284 284 283 283 283 284 284 283
278 278 278 279 280 281 282 281 280 280 279 280 280 280 280 282 283 285 286 288 290 292 293 293 293 292 291 289 289 288 288 287 287 286 286 286 285 284 284 283 283 284 284 284
278 278 280 281 281 283 283 282 282 281 281 280 282 282 282 283 284 286 287 289 290 292 293 294 294 293 292 291 291 290 289 289 288 288 287 287 285 284 284 284 284 284 284 285
278 279 279 280 281 283 282 282 281 281 281 281 283 284 284 285 286 288 289 290 291 293 294 294 294 294 294 293 292 292 291 291 290 289 288 287 287 286 285 285 284 284 284 285
277 278 279 280 281 282 281 281 281 281 282 282 283 284 285 286 287 289 290 291 292 294 294 295 294 295 295 294 293 293 292 292 291 289 288 288 287 287 286 285 284 284 285 286
276 278 278 279 279 278 279 280 280 280 281 282 283 284 286 288 289 290 291 292 293 294 295 295 295 295 296 295 295 294 293 292 291 290 289 288 288 287 286 286 286 286 286 287
277 277 277 277 277 277 278 278 279 279 280 281 282 284 286 287 288 290 291 292 293 294 294 295 295 295 296 296 296 295 294 293 292 291 290 289 288 287 287 287 288 287 287 287
277 276 275 276 276 277 278 278 278 278 279 281 283 285 286 287 288 289 290 292 293 293 293 294 295 295 296 296 296 296 295 294 292 292 291 290 290 289 289 289 288 288 287 287